Waarnemingen

Advertentie
Mijn weer
Pisa/S. Giusto, Italië (16158): temperatuur & dauwpunt: 16.06.2018 09:00:00 - 22.06.2018 09:00:00 (CEST)Pisa/S. Giusto, Italië (16158): windsnelheid: 16.06.2018 09:00:00 - 22.06.2018 09:00:00 (CEST)Pisa/S. Giusto, Italië (16158): windrichting: 16.06.2018 09:00:00 - 22.06.2018 09:00:00 (CEST)Pisa/S. Giusto, Italië (16158): luchtdruk: 16.06.2018 09:00:00 - 22.06.2018 09:00:00 (CEST)Pisa/S. Giusto, Italië (16158): zicht: 16.06.2018 09:00:00 - 22.06.2018 09:00:00 (CEST)Pisa/S. Giusto, Italië (16158): Zonneschijnduur: 16.06.2018 09:00:00 - 22.06.2018 09:00:00 (CEST)
Datum & Tijd tt [°C] td [°C] ff [km/u] ff [kn] dd ppp [hPa] vv [km] sd [min]
22.06.2018 09:00:00 21,0 20,0 8 4 OZO - 10 -
22.06.2018 08:00:00 19,0 19,0 9 5 OZO 1013,5 10 0
22.06.2018 07:00:00 19,0 19,0 8 4 O - 8 -
22.06.2018 06:00:00 18,0 18,0 2 1 O - 8 -
22.06.2018 05:00:00 18,2 18,2 4 2 - 1013,9 8 -
22.06.2018 04:00:00 18,0 18,0 4 2 ZO - 8 -
22.06.2018 03:00:00 18,0 18,0 4 2 OZO - 8 -
22.06.2018 02:00:00 18,6 18,3 9 5 ZZO 1015,1 10 -
22.06.2018 01:00:00 19,0 19,0 2 1 - - 10 -
22.06.2018 00:00:00 20,0 20,0 4 2 ZO - 10 -
21.06.2018 23:00:00 21,2 21,2 4 2 ZZO 1015,1 10 -
21.06.2018 22:00:00 21,0 21,0 4 2 ZZO - 10 -
21.06.2018 21:00:00 23,0 22,0 5 3 - - 10 -
21.06.2018 20:00:00 25,0 21,7 13 7 WZW 1014,7 10 60
21.06.2018 19:00:00 25,0 21,0 18 10 WNW - 10 -
21.06.2018 18:00:00 26,0 21,0 21 11 WNW - 10 -
21.06.2018 17:00:00 25,0 19,4 15 8 W 1015,8 10 30
21.06.2018 16:00:00 27,0 20,0 18 10 W - 10 -
21.06.2018 15:00:00 27,0 20,0 22 12 WZW - 10 -
21.06.2018 14:00:00 27,4 20,5 24 13 W 1016,6 10 60
21.06.2018 13:00:00 28,0 19,0 21 11 W - 10 -
21.06.2018 12:00:00 28,0 20,0 16 9 W - 10 -
21.06.2018 11:00:00 26,2 20,8 15 8 WZW 1016,8 10 60
21.06.2018 10:00:00 26,0 20,0 5 3 - - 10 -
21.06.2018 09:00:00 24,0 18,0 4 2 - - 10 -
21.06.2018 08:00:00 21,0 18,0 11 6 O 1017,4 10 48
21.06.2018 07:00:00 20,0 19,0 8 4 ZO - 10 -
21.06.2018 06:00:00 18,0 18,0 5 3 O - 10 -
21.06.2018 05:00:00 18,0 18,0 5 3 ZO 1017,2 10 -
21.06.2018 04:00:00 19,0 18,0 5 3 ZO - 10 -
21.06.2018 03:00:00 19,0 18,0 8 4 OZO - 10 -
21.06.2018 02:00:00 21,0 19,1 8 4 OZO 1017,7 10 -
21.06.2018 01:00:00 21,0 20,0 5 3 OZO - 10 -
21.06.2018 00:00:00 22,0 20,0 4 2 ZO - 10 -
20.06.2018 23:00:00 23,0 19,0 5 3 Z 1017,7 10 -
20.06.2018 22:00:00 24,0 18,0 8 4 WZW - 10 -
20.06.2018 21:00:00 26,0 16,0 9 5 WNW - 10 -
20.06.2018 20:00:00 28,2 15,2 9 5 WNW 1017,0 10 60
20.06.2018 19:00:00 28,0 13,0 13 7 W - 10 -
20.06.2018 18:00:00 29,0 13,0 21 11 WNW - 10 -
20.06.2018 17:00:00 30,0 13,7 24 13 WNW 1017,7 10 60
20.06.2018 16:00:00 30,0 14,0 21 11 WNW - 10 -
20.06.2018 15:00:00 31,0 14,0 11 6 O - 10 -
20.06.2018 14:00:00 30,2 13,5 13 7 O 1019,2 10 60
20.06.2018 13:00:00 30,0 13,0 11 6 O - 10 -
20.06.2018 12:00:00 30,0 13,0 21 11 ONO - 10 -
20.06.2018 11:00:00 28,6 12,5 18 10 O 1019,5 10 60
20.06.2018 10:00:00 28,0 12,0 16 9 NO - 10 -
20.06.2018 09:00:00 25,0 14,0 5 3 - - 10 -
20.06.2018 08:00:00 20,2 15,0 4 2 - 1019,1 10 48
20.06.2018 07:00:00 18,0 15,0 4 2 ONO - 10 -
20.06.2018 06:00:00 16,0 15,0 4 2 O - 10 -
20.06.2018 05:00:00 16,2 16,0 4 2 NNO 1018,8 10 -
20.06.2018 04:00:00 17,0 17,0 4 2 ZO - 10 -
20.06.2018 03:00:00 18,0 16,0 4 2 ZZW - 10 -
20.06.2018 02:00:00 19,2 17,4 9 5 ZZO 1018,9 10 -
20.06.2018 01:00:00 20,0 18,0 4 2 ZZO - 10 -
20.06.2018 00:00:00 21,0 18,0 9 5 NNW - 10 -
19.06.2018 23:00:00 24,2 17,0 4 2 WZW 1018,6 10 -
19.06.2018 22:00:00 24,0 17,0 4 2 NW - 10 -
19.06.2018 21:00:00 25,0 16,0 9 5 NNW - 10 -
19.06.2018 20:00:00 28,0 14,3 13 7 NW 1017,2 10 60
19.06.2018 19:00:00 29,0 14,0 22 12 NW - 10 -
19.06.2018 18:00:00 29,0 13,0 21 11 NW - 10 -
19.06.2018 17:00:00 30,0 14,1 22 12 NW 1017,7 10 60
19.06.2018 16:00:00 29,0 14,0 22 12 NW - 10 -
19.06.2018 15:00:00 30,0 16,0 22 12 WNW - 10 -
19.06.2018 14:00:00 30,0 14,1 21 11 WNW 1018,6 10 36
19.06.2018 13:00:00 30,0 15,0 18 10 NNW - 10 -
19.06.2018 12:00:00 29,0 13,0 11 6 OZO - 10 -
19.06.2018 11:00:00 27,0 14,1 15 8 OZO 1019,2 10 60
19.06.2018 10:00:00 26,0 15,0 18 10 O - 10 -
19.06.2018 09:00:00 21,0 15,0 9 5 ZO - 10 -
19.06.2018 08:00:00 17,0 16,8 5 3 ZO 1018,5 10 48
19.06.2018 07:00:00 17,0 17,0 8 4 O - 10 -
19.06.2018 06:00:00 17,0 17,0 5 3 O - 10 -
19.06.2018 05:00:00 18,0 16,0 4 2 ZW 1017,3 10 -
19.06.2018 04:00:00 19,0 16,0 2 1 - - 10 -
19.06.2018 03:00:00 18,0 17,0 4 2 WNW - 10 -
19.06.2018 02:00:00 19,0 17,3 4 2 WZW 1017,0 10 -
19.06.2018 01:00:00 20,0 18,0 4 2 Z - 10 -
19.06.2018 00:00:00 21,0 17,0 4 2 - - 10 -
18.06.2018 23:00:00 24,0 17,7 4 2 - 1016,5 10 -
18.06.2018 22:00:00 24,0 18,0 4 2 - - 10 -
18.06.2018 21:00:00 25,0 17,0 4 2 WNW - 10 -
18.06.2018 20:00:00 26,6 14,7 9 5 WNW 1014,9 10 12
18.06.2018 19:00:00 27,0 15,0 15 8 NW - 10 -
18.06.2018 18:00:00 29,0 14,0 16 9 WNW - 10 -
18.06.2018 17:00:00 28,8 17,0 18 10 NW 1015,5 10 60
18.06.2018 16:00:00 29,0 19,0 18 10 NNW - 10 -
18.06.2018 15:00:00 30,0 12,0 13 7 O - 10 -
18.06.2018 14:00:00 28,8 11,8 21 11 O 1015,8 10 60
18.06.2018 13:00:00 29,0 13,0 16 9 ONO - 10 -
18.06.2018 12:00:00 26,0 19,0 13 7 WNW - 10 -
18.06.2018 11:00:00 25,0 18,9 5 3 NW 1015,8 10 18
18.06.2018 10:00:00 23,0 20,0 2 1 OZO - 10 -
18.06.2018 09:00:00 20,0 20,0 5 3 ONO - 6 -
18.06.2018 08:00:00 19,0 19,0 5 3 OZO 1015,3 0,6 0
18.06.2018 07:00:00 19,0 19,0 11 6 OZO - 0,4 -
18.06.2018 06:00:00 18,0 18,0 8 4 ZZO - 2,0 -
18.06.2018 05:00:00 18,0 18,0 5 3 - 1014,7 1,5 -
18.06.2018 04:00:00 19,0 19,0 4 2 - - 2,5 -
18.06.2018 03:00:00 18,0 18,0 4 2 - - 3,0 -
18.06.2018 02:00:00 19,0 18,4 5 3 ZW 1015,2 7 -
18.06.2018 01:00:00 20,0 19,0 5 3 W - 10 -
18.06.2018 00:00:00 20,0 19,0 2 1 - - 10 -
17.06.2018 23:00:00 21,0 20,2 5 3 WZW 1014,8 10 -
17.06.2018 22:00:00 22,0 21,0 8 4 W - 10 -
17.06.2018 21:00:00 22,0 21,0 9 5 WNW - 10 -
17.06.2018 20:00:00 23,8 20,5 16 9 WNW 1013,6 10 60
17.06.2018 19:00:00 25,0 19,0 15 8 WNW - 10 -
17.06.2018 18:00:00 25,0 19,0 18 10 WNW - 10 -
17.06.2018 17:00:00 26,0 19,4 18 10 W 1013,8 10 60
17.06.2018 16:00:00 26,0 18,0 15 8 W - 10 -
17.06.2018 15:00:00 26,0 19,0 18 10 NW - 10 -
17.06.2018 14:00:00 25,4 19,1 22 12 NW 1014,6 10 60
17.06.2018 13:00:00 25,0 19,0 18 10 WNW - 10 -
17.06.2018 12:00:00 25,0 19,0 21 11 W - 10 -
17.06.2018 11:00:00 25,0 18,4 15 8 WZW 1014,3 10 60
17.06.2018 10:00:00 24,0 18,0 11 6 WNW - 10 -
17.06.2018 09:00:00 19,0 17,0 5 3 - - 10 -
17.06.2018 08:00:00 18,0 16,9 0 0 N 1014,2 10 60
17.06.2018 07:00:00 17,0 17,0 4 2 OZO - 10 -
17.06.2018 06:00:00 15,0 15,0 8 4 OZO - 10 -
17.06.2018 05:00:00 16,0 16,0 5 3 OZO 1013,8 10 -
17.06.2018 04:00:00 16,0 16,0 8 4 OZO - 10 -
17.06.2018 03:00:00 16,0 16,0 8 4 OZO - 10 -
17.06.2018 02:00:00 17,0 17,0 5 3 OZO 1012,9 10 -
17.06.2018 01:00:00 17,0 17,0 4 2 OZO - 10 -
17.06.2018 00:00:00 18,0 18,0 5 3 ZW - 10 -
16.06.2018 23:00:00 20,4 18,7 2 1 W 1012,7 10 -
16.06.2018 22:00:00 21,0 18,0 4 2 NNW - 10 -
16.06.2018 21:00:00 21,0 19,0 8 4 WNW - 10 -
16.06.2018 20:00:00 23,0 16,3 18 10 NW 1011,8 10 0
16.06.2018 19:00:00 23,0 17,0 15 8 NW - 10 -
16.06.2018 18:00:00 24,0 13,0 16 9 NW - 10 -
16.06.2018 17:00:00 26,0 13,2 22 12 NW 1012,1 10 60
16.06.2018 16:00:00 26,0 14,0 21 11 WNW - 10 -
16.06.2018 15:00:00 27,0 13,0 22 12 WNW - 10 -
16.06.2018 14:00:00 27,0 12,3 16 9 WNW 1012,4 10 60
16.06.2018 13:00:00 27,0 13,0 18 10 WNW - 10 -
16.06.2018 12:00:00 26,0 13,0 16 9 W - 10 -
16.06.2018 11:00:00 25,0 12,2 8 4 NNW 1012,7 10 60
16.06.2018 10:00:00 25,0 12,0 5 3 - - 10 -
16.06.2018 09:00:00 23,0 15,0 4 2 - - 10 -

tt = temperatuur
td = dauwpunt
ff = windsnelheid
dd = windrichting
ppp = luchtdruk
vv = zicht
sd = Zonneschijnduur

Weerstations in de omgeving